Regional Weather Roundup
Issued by NWS Cleveland, OH

Home | Current Version | Previous Version | Text Only | Print | Product List | Glossary Off
Versions: 1 2 3 4 5 6 7 8 9 10 11 12 13 14 15 16 17 18 19 20 21 22 23 24 25 26 27 28 29 30 31 32 33 34 35 36 37 38 39 40 41 42 43 44 45 46 47 48 49 50

000
ASUS41 KCLE 050200
RWRCLE
OHIO REGIONAL WEATHER ROUNDUP
NATIONAL WEATHER SERVICE WILMINGTON, OH
1000 PM EDT FRI SEP 04 2015

NOTE: "FAIR" INDICATES FEW OR NO CLOUDS BELOW 12,000 FEET WITH NO
SIGNIFICANT WEATHER AND/OR OBSTRUCTIONS TO VISIBILITY.

OHZ001>008-015>018-024>027-034-035-043-044-050300-
   NORTHWEST OHIO

CITY           SKY/WX    TMP DP  RH WIND       PRES   REMARKS
DEFIANCE       MOCLDY    73  68  84 CALM      30.06R
FINDLAY        CLOUDY    70  65  84 SW5       30.10R
TOLEDO EXPRESS CLOUDY    69  66  90 SE3       30.07R
TOLEDO EXEC    CLOUDY    71  65  81 SE5       30.07R
LIMA           CLOUDY    68  65  90 NW5       30.10R
$$

OHZ009>014-019>023-028>033-038-089-050300-
   NORTHEAST OHIO

CITY           SKY/WX    TMP DP  RH WIND       PRES   REMARKS
CLE-HOPKINS    PTCLDY    71  64  78 S6        30.11R
CLE-LAKEFRONT  CLEAR     77  67  71 SE5       30.08R
CUY CO. ARPT   PTCLDY    75  68  78 S7        30.10R
LORAIN-ELYRIA  PTCLDY    66  61  84 CALM      30.10R
ASHTABULA      MOCLDY    74  68  81 SE8       30.13R
AKRON-CANTON   PTCLDY    74  65  73 S5        30.12R
WOOSTER        NOT AVBL
MANSFIELD      MOCLDY    69  66  90 SE6       30.11R
YOUNGSTOWN     PTCLDY    69  65  86 S3        30.12S
$$

OHZ042-051>053-060>062-070>072-077>081-050300-
  SOUTHWEST OHIO

CITY           SKY/WX    TMP DP  RH WIND       PRES   REMARKS
CINC-COVINGTON LGT RAIN  70  65  84 SE6       30.11F
CINC-LUNKEN    LGT RAIN  69  32  25 NE8       30.12F
HAMILTON       LGT RAIN  70  66  87 E3        30.11F
DAYTON         NOT AVBL
WRIGHT-PAT AFB CLOUDY    69  65  88 SE13      30.06F
DAYTON GENERAL CLOUDY    68  64  87 S8        30.09F
WILMINGTON     CLOUDY    73  60  63 NW9       30.12F
$$

OHZ036-037-039>041-045>050-054>059-063>069-073>076-082>088-050300-
  CENTRAL AND SOUTHEAST OHIO

CITY           SKY/WX    TMP DP  RH WIND       PRES   REMARKS
COLUMBUS       CLOUDY    69  66  90 NE3       30.11R
OSU AIRPORT    CLOUDY    68  65  90 S5        30.11F
BOLTON FIELD   NOT AVBL
RICKENBACK AFB CLOUDY    67  64  89 CALM      30.11S
NEWARK         MOCLDY    70  63  78 VRB5      30.13R
MARION         CLOUDY    68  64  87 SE6       30.10R
LANCASTER      CLOUDY    69  64  84 NW6       30.13R
ZANESVILLE     PTCLDY    71  65  81 NE3       30.11R
NEW PHILLY     PTCLDY    70  69  97 CALM      30.11S
$$


USA.gov is the U.S. government's official web portal to all federal, state and local government web resources and services.